Vorticity
nan nan nan nan nan nan nan nan nan nan nan nan nan nan nan nan nan nan nan nan nan nan nan nan nan nan nan nan nan nan nan nan nan nan nan nan nan nan nan nan nan nan nan nan nan nan nan nan nan nan nan nan nan nan
nan 7 7 7 7 9 11 11 9 7 6 6 7 7 6 6 8 16 16 8 12 12 8 9 7 6 7 14 19 7 7 16 10 9 9 13 11 7 11 12 9 12 7 5 11 2 1 6 6 9 10 8 13 nan
nan 9 8 6 7 10 10 11 10 8 7 7 6 6 8 7 6 14 13 10 13 11 10 13 15 12 7 2 10 14 9 12 9 9 15 12 9 10 12 6 5 6 7 9 8 6 4 6 8 10 10 10 12 nan
nan 9 8 6 6 9 11 9 8 8 9 8 8 8 8 10 8 8 9 11 12 9 12 13 12 11 14 15 6 4 10 8 12 12 10 10 10 11 8 5 12 12 14 14 6 -2 12 10 5 7 11 12 16 nan
nan 8 6 6 8 11 10 8 7 8 10 10 9 8 9 10 9 12 10 8 9 11 12 12 13 10 13 17 12 9 6 5 8 10 10 10 8 11 11 12 15 6 8 12 9 11 12 4 7 12 13 15 18 nan
nan 7 8 8 10 9 7 8 12 12 11 10 11 11 13 16 12 9 8 13 13 10 12 9 13 11 14 18 15 13 9 9 8 11 9 9 8 12 13 10 9 5 3 9 15 11 11 14 8 10 14 21 19 nan
nan 10 11 11 10 10 13 13 12 9 9 10 13 20 20 16 14 10 13 18 14 8 9 12 10 9 8 9 13 14 13 13 11 11 10 11 14 10 10 8 8 10 4 11 10 13 13 13 10 11 14 19 24 nan
nan 10 12 16 14 14 14 11 7 7 8 11 17 17 10 12 15 9 17 13 5 6 10 12 13 16 8 4 10 11 11 10 11 9 12 12 11 9 7 15 10 5 10 9 7 15 14 8 9 14 18 15 16 nan
nan 8 9 12 11 10 9 8 7 6 8 13 14 10 5 7 10 15 14 5 7 12 12 10 9 15 8 7 12 12 11 11 10 10 13 12 9 6 10 11 12 10 11 8 9 13 13 12 13 12 14 15 14 nan
nan 8 8 8 9 8 7 6 6 6 7 14 11 8 10 15 16 10 3 9 11 11 13 13 10 13 12 7 10 10 10 10 12 13 9 11 13 12 14 14 11 10 10 12 12 11 10 13 14 13 14 16 14 nan
nan 9 9 8 8 8 7 6 5 8 14 11 11 10 11 12 9 8 10 13 11 10 13 12 15 11 12 10 11 10 8 11 11 15 9 11 19 23 11 8 8 9 12 13 13 11 13 14 15 14 13 14 13 nan
nan 9 7 8 7 8 8 7 6 8 10 13 11 11 12 11 10 11 12 11 8 14 15 12 15 9 12 12 8 13 12 9 13 10 10 12 20 15 9 9 9 10 11 12 13 12 13 15 16 15 13 12 13 nan
nan 15 10 8 7 7 8 9 5 11 10 6 11 13 10 12 10 13 9 8 13 15 12 11 11 11 12 11 11 12 11 9 11 9 9 15 18 10 11 10 9 10 11 11 12 12 12 12 13 15 14 12 12 nan
nan 7 10 11 9 9 9 10 9 4 10 11 13 11 10 7 11 14 9 12 13 16 16 10 7 7 13 13 10 11 11 10 10 11 14 20 15 10 10 11 10 9 9 10 11 11 11 11 12 13 13 13 11 nan
nan 9 9 13 13 12 12 11 9 6 10 12 11 13 12 6 7 8 15 14 15 16 11 6 10 12 11 10 11 11 11 10 12 12 15 17 16 12 10 10 10 9 10 10 10 10 11 10 10 11 12 12 11 nan
nan 14 17 13 13 14 13 10 6 9 12 11 11 10 8 14 15 9 11 11 13 10 5 9 11 12 11 12 13 9 9 13 15 14 13 15 12 11 11 11 11 10 10 10 11 10 9 11 11 9 10 11 12 nan
nan 11 16 18 15 14 9 6 12 11 10 11 10 8 6 10 15 15 12 12 13 10 6 10 12 9 9 12 12 11 7 11 15 16 14 17 15 10 10 11 11 11 11 10 11 10 10 11 11 8 9 9 9 nan
nan 10 13 16 19 13 8 11 11 13 9 10 11 13 10 4 7 11 16 16 10 10 9 8 13 13 9 10 10 13 12 10 10 12 15 15 15 12 11 12 11 10 11 10 10 11 10 8 7 10 11 9 8 nan
nan 12 10 17 19 14 12 10 11 14 11 12 11 10 12 11 10 8 7 14 15 9 11 14 13 14 10 9 11 13 16 13 12 11 14 14 12 11 10 11 12 12 12 12 8 9 12 11 10 11 10 9 8 nan
nan 17 15 12 9 11 11 11 14 14 13 12 13 13 10 9 11 13 10 7 10 15 14 11 10 10 11 12 12 13 15 14 12 11 11 12 13 13 11 8 11 12 10 9 9 11 12 11 11 12 11 12 12 nan
nan 20 14 7 7 8 10 15 13 17 16 10 12 14 13 13 13 11 10 10 6 5 10 11 11 10 10 9 12 12 14 12 8 12 15 15 13 10 11 11 12 9 10 11 11 10 10 11 12 11 12 12 12 nan
nan 17 11 9 10 12 12 10 2 8 22 26 14 6 11 13 14 14 13 10 8 11 8 6 8 11 11 8 9 9 10 10 8 10 15 18 13 11 11 12 10 10 10 11 11 11 11 12 13 12 11 12 12 nan
nan 17 14 12 11 8 13 16 12 3 10 18 20 16 10 10 14 10 11 14 11 13 14 13 12 8 7 13 13 11 12 11 9 11 11 11 12 12 12 12 11 11 11 11 12 12 13 12 12 12 13 12 11 nan
nan 18 16 11 8 10 15 16 16 6 5 9 11 19 19 17 16 10 6 11 14 16 14 12 12 13 15 14 12 13 13 12 11 12 13 12 12 14 12 12 11 11 12 13 13 13 12 13 13 11 10 12 11 nan
nan 15 11 12 11 11 13 19 16 13 8 5 5 6 10 15 24 24 18 11 12 11 13 13 11 12 13 14 12 15 14 11 13 11 12 11 11 13 13 13 13 12 12 12 13 13 12 12 11 13 12 12 13 nan
nan 14 14 8 8 10 11 17 18 16 17 10 6 8 11 12 11 11 23 22 18 17 15 14 12 12 13 13 12 13 15 12 10 13 15 14 12 12 12 11 10 13 14 13 14 13 11 11 14 12 11 15 11 nan
nan 12 11 12 11 9 7 10 11 12 13 17 18 13 6 9 10 13 11 13 14 12 21 26 17 12 13 13 12 15 19 18 14 12 15 15 13 14 14 15 11 13 16 14 14 14 12 11 12 11 10 13 13 nan
nan 19 17 6 9 12 10 5 14 18 10 9 10 11 10 11 3 7 12 11 9 11 13 15 20 22 18 17 17 16 13 13 13 15 15 16 14 12 14 15 18 16 14 14 14 13 13 13 14 13 11 11 12 nan
nan 13 16 19 12 9 12 15 9 10 20 21 17 13 11 4 9 13 11 10 9 10 13 16 15 15 18 20 19 16 14 16 15 13 7 4 9 14 14 13 17 14 14 17 15 15 14 12 14 14 12 10 13 nan
nan 7 9 13 14 10 11 16 17 9 8 13 18 17 14 14 18 13 9 11 14 13 13 12 15 16 15 14 10 10 13 13 14 15 15 12 8 11 14 13 12 12 14 15 14 13 12 11 12 14 13 12 13 nan
nan 9 9 7 7 9 12 10 11 14 13 9 9 10 9 14 16 16 15 14 12 13 13 13 12 13 16 17 15 12 8 11 13 11 13 20 20 14 12 11 11 12 15 14 12 13 12 11 12 14 12 11 9 nan
nan 16 16 11 5 6 9 10 13 11 9 11 9 11 12 9 9 15 17 15 13 12 13 15 13 13 11 13 13 12 19 21 15 16 14 11 15 15 12 11 12 14 14 12 12 16 15 8 9 11 13 12 10 nan
nan nan nan nan nan nan nan nan nan nan nan nan nan nan nan nan nan nan nan nan nan nan nan nan nan nan nan nan nan nan nan nan nan nan nan nan nan nan nan nan nan nan nan nan nan nan nan nan nan nan nan nan nan nan
CAPE
3 0 0 0 0 0 17 26 22 4 0 0 0 0 0 0 0 0 0 0 0 0 0 0 0 0 0 0 0 0 0 0 2 7 8 13 2 0 0 0 0 0 1 12 16 24 16 0 0 5 71 16 34 42
4 0 0 0 0 0 0 0 15 0 0 0 0 0 0 0 0 0 0 0 0 0 0 0 0 0 0 0 0 0 6 0 8 14 4 16 13 12 2 7 0 0 0 8 5 12 4 16 40 63 18 15 31 40
6 19 7 0 0 0 0 5 8 0 0 0 0 0 0 0 0 0 8 11 4 8 5 0 0 0 0 0 0 0 0 2 1 5 25 25 9 17 17 7 8 4 5 16 13 0 23 4 0 12 17 27 32 35
0 6 0 0 0 0 0 0 0 0 0 0 0 0 0 0 0 0 20 9 7 7 16 6 0 2 0 0 0 0 6 0 9 11 45 34 33 14 21 21 14 2 8 7 24 18 9 1 4 17 11 13 21 30
0 0 0 0 0 0 3 2 0 0 0 0 0 0 0 0 0 6 34 18 6 20 29 12 7 7 1 2 0 1 0 7 18 52 12 34 12 15 36 24 18 1 9 18 43 19 19 8 8 6 7 5 45 12
0 0 0 0 0 0 0 0 0 4 0 0 0 0 0 0 0 67 13 17 17 22 28 13 8 12 15 8 11 13 12 11 12 23 32 28 2 24 52 32 1 0 8 18 30 8 6 6 5 0 9 23 31 6
0 0 0 0 0 0 0 2 11 7 0 0 0 13 8 0 61 41 31 34 12 27 59 42 18 8 8 2 1 1 5 5 12 20 41 21 19 25 58 34 0 7 1 0 2 2 0 0 4 9 14 5 14 10
0 0 4 11 8 21 27 22 5 0 0 1 0 23 3 0 0 31 48 7 39 11 25 18 11 19 20 11 11 6 15 14 29 31 36 34 31 60 39 1 5 0 0 0 1 3 6 3 7 3 9 3 2 7
13 13 16 22 17 6 15 14 1 0 0 1 1 28 69 36 47 52 1 1 97 62 9 37 10 42 21 25 10 12 9 12 21 34 34 22 46 40 2 7 1 2 5 8 5 1 3 3 7 3 6 9 6 6
41 17 7 3 4 0 0 1 0 0 0 0 30 42 94 37 0 2 41 67 100 81 63 18 18 33 29 47 14 26 37 30 44 25 35 53 22 7 7 0 3 5 3 5 5 5 5 8 11 5 7 11 7 7
36 23 6 3 0 0 0 0 0 0 0 45 32 42 34 1 42 51 31 34 28 34 52 21 17 41 22 53 47 40 33 24 27 31 33 29 9 9 0 1 4 4 3 6 2 2 5 8 9 5 11 10 9 8
27 26 11 2 0 0 0 0 0 3 49 17 9 35 35 8 26 11 27 17 23 13 20 23 24 20 21 37 60 21 19 19 13 38 16 10 16 6 2 3 2 3 3 4 4 5 8 10 11 13 12 10 11 6
2 6 6 0 0 0 0 0 0 2 3 38 16 28 68 32 57 35 18 11 15 12 15 10 20 32 35 39 42 51 22 15 23 31 6 16 9 4 4 6 3 4 2 2 1 6 7 7 8 9 11 10 7 6
9 2 2 11 14 11 11 1 3 8 22 38 78 16 26 34 24 26 12 15 17 16 18 19 34 32 40 29 57 28 34 21 27 23 7 31 5 4 5 4 5 2 2 4 2 4 2 2 7 4 4 7 7 10
16 11 8 13 20 11 20 13 7 65 52 39 74 33 20 10 56 41 44 54 28 36 24 33 41 17 35 42 22 17 22 17 6 7 35 63 2 4 4 3 4 4 2 2 2 3 2 5 4 8 9 8 7 5
12 17 18 5 19 22 25 40 47 40 61 37 27 24 37 44 121 128 29 46 46 56 62 36 53 46 19 15 16 15 8 6 12 19 79 3 3 2 2 3 2 3 6 5 6 5 5 3 5 5 6 7 5 2
15 44 3 8 14 25 37 44 61 42 108 22 5 17 43 36 79 110 38 63 44 53 53 65 39 7 32 17 13 11 6 26 122 111 9 2 5 6 5 5 4 5 6 3 2 2 2 3 4 4 3 3 1 2
54 53 3 13 44 37 17 11 84 56 34 13 25 26 61 63 78 89 98 110 79 33 59 49 24 21 17 3 2 20 14 95 42 40 5 4 4 7 5 3 3 3 2 1 0 0 1 2 1 1 0 0 0 0
39 42 0 5 17 31 83 51 121 55 30 29 30 34 65 77 72 77 81 49 98 83 57 67 46 32 13 5 63 57 83 128 38 2 5 5 5 6 4 3 1 0 0 0 0 1 0 0 0 0 0 0 0 0
3 14 24 13 3 29 29 71 50 36 33 40 43 52 52 53 52 128 134 46 12 3 4 89 52 23 69 74 90 108 110 134 21 2 5 4 5 4 4 2 0 0 0 0 0 0 0 0 0 0 0 0 0 0
4 27 26 32 66 28 36 39 87 58 49 63 26 53 54 84 113 133 158 60 48 56 71 33 61 124 137 135 142 177 183 138 62 39 1 6 11 8 5 3 1 0 0 0 0 0 0 0 0 0 0 24 6 3
57 21 74 85 24 15 42 26 25 17 68 35 73 33 67 86 83 75 31 86 49 45 50 64 83 139 128 127 39 111 141 102 59 4 0 0 9 7 6 7 3 1 0 0 0 0 0 0 0 0 10 29 5 7
4 13 29 29 23 24 7 5 15 19 83 26 42 42 26 62 56 60 51 81 70 115 71 19 2 9 56 154 187 114 43 45 56 12 0 1 4 5 6 9 8 11 2 0 0 0 1 0 0 14 16 7 11 9
1 80 39 15 15 24 28 22 36 57 32 51 39 18 10 16 4 69 11 62 84 84 62 26 14 36 77 154 161 95 47 6 28 8 0 1 3 6 5 5 6 7 3 1 0 5 2 12 5 4 15 17 12 5
51 51 53 19 33 44 14 32 47 33 61 17 28 19 33 11 52 20 13 3 15 38 50 6 3 36 124 110 86 97 100 13 37 25 2 0 1 8 7 6 6 5 8 10 10 18 16 19 19 19 6 17 3 3
41 41 19 15 9 18 37 27 26 35 35 47 5 8 11 36 38 7 43 65 102 105 0 0 0 41 90 73 95 73 52 11 29 60 7 2 2 8 7 8 13 14 8 5 11 15 15 16 16 7 9 6 2 7
25 69 33 23 33 31 33 45 31 3 8 22 16 62 51 79 46 9 48 2 2 0 4 76 69 100 77 55 81 157 148 36 33 17 2 0 1 5 8 3 3 2 1 6 11 11 11 10 13 13 13 19 11 12
54 35 40 36 40 35 51 30 45 35 23 0 13 12 35 38 2 37 15 0 0 0 0 0 6 50 67 85 112 160 65 7 0 0 0 1 2 8 9 10 3 0 0 2 8 9 9 8 11 11 10 13 7 13
49 65 84 64 78 42 47 40 44 33 25 38 79 87 59 2 3 2 0 0 1 0 0 1 1 5 0 6 31 13 1 1 3 3 0 2 9 3 10 19 2 0 3 10 0 3 6 4 6 9 9 14 15 16
20 27 52 44 41 33 68 38 92 109 24 59 20 10 6 26 87 3 0 0 0 3 8 11 11 3 1 1 0 1 0 0 0 0 1 2 1 3 2 0 0 3 4 6 10 13 0 5 6 18 22 21 16 11
36 78 37 41 42 77 136 332 21 11 23 58 218 63 33 54 88 82 28 3 3 5 5 1 4 3 3 1 0 0 0 0 0 2 0 0 0 0 0 0 0 0 1 2 8 10 13 16 17 7 4 4 1 4
122 75 130 90 117 195 156 38 86 68 44 41 57 133 217 44 28 119 2 7 2 4 2 6 0 4 2 3 1 1 0 2 0 0 0 0 0 0 0 0 0 0 1 1 6 7 6 6 5 4 4 4 5 5
104 159 149 108 109 83 167 60 17 37 26 23 47 80 109 70 11 306 3 6 6 6 11 6 1 0 0 2 0 1 0 2 0 0 0 0 0 0 0 0 0 0 1 0 1 4 7 9 6 4 2 3 2 3